Location: Unspecified
(0.0000°N, 0.0000°E)
Time: 15:47:48
(UTC+00:00)

A-11 Canister half - Pass Details

Date: 25 September 2023
Orbit: 1525 x 1684 km, 47.3° (Epoch: 05 December)

Event Time Altitude Azimuth Distance (km) Brightness Sun altitude
Rises 09:32:24 0° 198° (SSW) 4,747 11.5 55.1°
Reaches altitude 10° 09:36:13 10° 186° (S) 3,740 11.1 56.1°
Maximum altitude 09:43:43 26° 132° (SE) 2,638 11.1 58.0°
Drops below altitude 10° 09:51:04 10° 79° (ENE) 3,684 11.7 59.8°
Sets 09:54:45 0° 67° (ENE) 4,664 11.9 60.7°
